Regional Weather Roundup
Issued by NWS

Home | Current Version | Previous Version | Graphics & Text | Print | Product List | Glossary On
Versions: 1 2 3 4 5 6 7 8 9 10 11 12 13 14 15 16 17 18 19 20 21 22 23 24 25 26 27 28 29 30 31 32 33 34 35 36 37 38 39 40 41 42 43 44 45 46 47 48 49 50
000
ASUS43 KIND 092009
RWRIN

WEATHER ROUNDUP FOR INDIANA
NATIONAL WEATHER SERVICE INDIANAPOLIS IN
400 PM EDT WED JUL 09 2014

NOTE: "FAIR" INDICATES FEW OR NO CLOUDS BELOW 12,000 FEET WITH NO
SIGNIFICANT WEATHER AND/OR OBSTRUCTIONS TO VISIBILITY.

* - STATION DOES NOT REPORT WEATHER SUCH AS PRECIPITATION OR FOG.

+ - STATION NOT QUALITY CONTROLLED BY THE NATIONAL WEATHER SERVICE.
    USE DATA WITH CAUTION...ESPECIALLY DEWPOINT AND RELATIVE
    HUMIDITY OBSERVATIONS.

INZ001>003-010>013-019-020-092100-
NORTHWEST INDIANA

CITY           SKY/WX    TMP DP  RH WIND       PRES   REMARKS
GARY /AIRPORT/ MOSUNNY   75  57  53 NE9       29.96S
KNOX *+        PTSUNNY   74  57  55 N6        29.95S
LA PORTE +     SUNNY     73  56  53 N7        29.97S
MICHIGAN CITY+ SUNNY     73  52  46 NW5       29.97S
MONTICELLO +   MOSUNNY   78  58  49 W13       29.95S
RENSSELAER +   MOSUNNY   75  55  50 W9        29.96S
VALPARAISO     MOSUNNY   76  56  49 N6        29.96S

$$

LMZ046-743>745-092100-
SOUTHERN LAKE MICHIGAN

STATION/POSITION TIME  TEMP WIND        PRES
                       AIR  DIR/SP/G
                 (UTC) (F)  (DEG/KT/KT) (MB)
MICHIGAN CITY    2000   67   20/  8/  9   N/A

$$

INZ004-005-014>016-021>024-092100-
NORTH CENTRAL INDIANA

CITY           SKY/WX    TMP DP  RH WIND       PRES   REMARKS
ELKHART        MOSUNNY   73  54  49 NW8       29.97S
GOSHEN         MOSUNNY   76  56  49 NW13      29.96R
LOGANSPORT +   MOSUNNY   79  55  44 W10G17    29.96S
PERU/GRISSOM   MOSUNNY   77  59  52 W10       29.95S
ROCHESTER +    SUNNY     81  55  41 NW10      29.95S
SOUTH BEND     MOSUNNY   75  55  49 NW10      29.97S
WARSAW +       MOSUNNY   77  59  53 NW13      29.96R

$$

INZ006>009-017-018-025>027-092100-
NORTHEAST INDIANA

CITY           SKY/WX    TMP DP  RH WIND       PRES   REMARKS
ANGOLA *+      MOSUNNY   79  57  47 W15       29.95R
AUBURN +       CLOUDY    77  54  44 NW9       29.95S
FORT WAYNE     MOSUNNY   81  57  43 NW12G17   29.94R
HUNTINGTON +   PTSUNNY   77  60  55 W8        29.94S

$$

INZ028-029-035-036-043>045-051>053-092100-
WEST CENTRAL INDIANA

CITY           SKY/WX    TMP DP  RH WIND       PRES   REMARKS
GREENCASTLE +  SUNNY     79  59  50 NW10G16   29.98S
LAFAYETTE      MOSUNNY   79  57  46 W9        29.96R
TERRE HAUTE    MOSUNNY   81  62  52 NW9       29.97S

$$

INZ030>032-037>040-046>048-054>057-064-065-092100-
CENTRAL INDIANA

CITY           SKY/WX    TMP DP  RH WIND       PRES   REMARKS
CP ATTERBURY + CLOUDY    79  59  50 W6        29.97S
COLUMBUS       PTSUNNY   81  59  47 SW10      29.97S
INDIANAPOLIS   PTSUNNY   80  59  48 NW16G24   29.96S
-EAGLE CREEK   MOSUNNY   79  57  46 W15       29.96R
KOKOMO *+      MOSUNNY   81  57  44 W14       29.96R
MARION +       SUNNY     77  55  46 W13       29.96S
MT COMFORT *+  MOSUNNY   81  61  50 NW13G20   29.96S
SHELBYVILLE    PTSUNNY   81  61  50 NW10      29.96R
ZIONSVILLE +   SUNNY     79  56  45 W16       29.98R

$$

INZ033-034-041-042-049-050-058-059-092100-
EAST CENTRAL INDIANA

CITY           SKY/WX    TMP DP  RH WIND       PRES   REMARKS
MUNCIE         MOSUNNY   79  59  50 NW13      29.95S

$$

INZ060-061-067>069-081>083-085>088-092100-
SOUTHWEST INDIANA

CITY           SKY/WX    TMP DP  RH WIND       PRES   REMARKS
EVANSVILLE     PTSUNNY   85  58  39 SW8       29.98F
HUNTINGBURG *+ SUNNY     84  61  45 W9        29.98F
WASHINGTON +   PTSUNNY   80  62  55 W7        29.97S

$$

INZ062-063-066-070>080-084-089>092-092100-
SOUTH CENTRAL AND SOUTHEAST INDIANA

CITY           SKY/WX    TMP DP  RH WIND       PRES   REMARKS
BEDFORD +      CLOUDY    79  57  47 W6        29.98S
BLOOMINGTON    PTSUNNY   79  61  53 W9        29.97S
SEYMOUR +      MOSUNNY   79  41  25 W10G16    29.97

$$



USA.gov is the U.S. government's official web portal to all federal, state and local government web resources and services.